Voltar ao catálogo

STARLINK-37259

AtivoComunicaçõesVLEO
NORAD 68972·PAYLOAD·🇺🇸 United States

Lançado May 1, 2026 de Cape Canaveral Space Force Station

Loading…

Próximas Passagens (próximas 24 horas)

TLE

AtualizadoSource: CelesTrak SupGP

Época: Sep 14, 2026, 23:36 UTC

1 68972C 26099X   26257.98381944  .00032325  00000+0  95536-3 0  2578
2 68972  53.1565 101.3670 0000985  87.0039 162.9804 15.34364876    14

Acompanhe STARLINK-37259 em tempo real com AllMySat

Download on the App Store